Regional Weather Roundup
Issued by NWS Green Bay, WI

Home | Current Version | Previous Version | Text Only | Print | Product List | Glossary On
Versions: 1 2 3 4 5 6 7 8 9 10 11 12 13 14 15 16 17 18 19 20 21 22 23 24 25 26 27 28 29 30 31 32 33 34 35 36 37 38 39 40 41 42 43 44 45 46 47 48 49 50
902
ASUS43 KGRB 271001
RWRGRB

NORTH-CENTRAL AND NORTHEAST WISCONSIN REGIONAL WEATHER ROUNDUP
NATIONAL WEATHER SERVICE GREEN BAY WI
500 AM CDT THU JUL 27 2017

WIZ005-009-010>012-018-019-271100-
NORTH CENTRAL WISCONSIN

CITY           SKY/WX    TMP DP  RH WIND       PRES   REMARKS
IRONWOOD       CLEAR     53  52  96 CALM      30.07R
MANITOWISH WTR NOT AVBL
ARBOR VITAE    NOT AVBL
EAGLE RIVER    NOT AVBL
LAND O LAKES   NOT AVBL
RHINELANDER    CLEAR     59  58  96 N3        30.05S
PHILLIPS         N/A     54  54 100 CALM      30.05R FOG
ANTIGO         NOT AVBL
TOMAHAWK       NOT AVBL
MERRILL        NOT AVBL
$$

WIZ013-073-271100-
NORTHEAST WISCONSIN

CITY           SKY/WX    TMP DP  RH WIND       PRES   REMARKS
IRON MOUNTAIN  CLOUDY    58  54  86 CALM      30.01R
MARINETTE      CLEAR     61  60  97 N5        29.99R
$$

WIZ017-030-035>037-045-271100-
CENTRAL WISCONSIN

CITY           SKY/WX    TMP DP  RH WIND       PRES   REMARKS
MEDFORD        NOT AVBL
WAUSAU         CLEAR     60  59  96 NW5       30.02R
MOSINEE        NOT AVBL
MARSHFIELD     CLEAR     62  56  80 N6        30.02R
WISC RAPIDS    CLEAR     61  61 100 NE5       30.02R
STEVENS POINT  NOT AVBL
WAUPACA        NOT AVBL
SHAWANO        CLEAR     64  60  86 N3        30.00R
CLINTONVILLE   CLEAR    N/A N/A N/A CALM      30.00R
WAUTOMA        CLEAR     65  63  93 N5        30.00R
$$

WIZ038-039-048-051-271100-
FOX VALLEY

CITY           SKY/WX    TMP DP  RH WIND       PRES   REMARKS
NWS GREEN BAY  CLEAR     63  63 100 N6        29.98R
APPLETON       NOT AVBL
OSHKOSH        CLEAR     67  66  97 N6        29.97R
FOND DU LAC    MOCLDY    67  65  93 NW3       29.96R FOG
$$

WIZ022-050-052-271100-
EAST CENTRAL WISCONSIN

CITY           SKY/WX    TMP DP  RH WIND       PRES   REMARKS
EPHRAIM        NOT AVBL
WASHINGTON ISL NOT AVBL
STURGEON BAY     N/A     63  57  81 CALM      29.99R
MANITOWOC      NOT AVBL
SHEBOYGAN      CLEAR     68  68 100 N7        29.95R
$$

LMZ563-521-522-541>543-271100-
LAKESHORE

STATION/POSITION TIME  TEMP    WIND        PRES    VSBY  WAVE
                       AIR SEA DIR/SP/G                  HT/PER
                 (UTC) (F)     (DEG/KT/KT) (MB)    (MI)  (FT/S)
SHEBOYGAN LKSHOR 0900   71     330/  8/  9 1013.1F
KEWAUNEE LKSHORE 0930   67     360/  4/  8 1013.9R
NORTHPORT PIER   0940   67     330/  7/  8 1014.9R
N MID LAKE BUOY  0850   66 65  350/  4/  4 1015.0S         2/ 5
S GREEN BAY BUOY 0900   70 71   10/ 10/ 12 1014.8R
SISTER BAY LKSHO 0917   64        CALM       N/A
CHAMBERS ISLAND  0940   68     320/  7/  8 1014.6R
MENOMINEE LKSHOR 0930   66     320/  7/  8 1014.7S
$$




USA.gov is the U.S. government's official web portal to all federal, state and local government web resources and services.